Time,TemperatureF,DewpointF,PressureIn,WindDirection,WindDirectionDegrees,WindSpeedMPH,WindSpeedGustMPH,Humidity,HourlyPrecipIn,Conditions,Clouds,dailyrainin,SoftwareType,DateUTC
2013-06-01 00:00:00,63.7,53.5,28.63,SSE,157,1.2,1.6,70,0.00,,,0.00,Rainwise IP-100,2013-06-01 05:00:00,
2013-06-01 00:05:00,64.1,54.0,28.62,SE,135,2.6,2.6,70,0.00,,,0.00,Rainwise IP-100,2013-06-01 05:05:00,
2013-06-01 00:10:00,64.3,54.0,28.63,SE,135,1.9,2.8,69,0.00,,,0.00,Rainwise IP-100,2013-06-01 05:10:00,
2013-06-01 00:15:00,64.0,53.5,28.63,SSE,157,2.8,3.7,68,0.00,,,0.00,Rainwise IP-100,2013-06-01 05:15:00,
2013-06-01 00:20:00,63.5,53.5,28.63,SSE,157,3.7,4.0,69,0.00,,,0.00,Rainwise IP-100,2013-06-01 05:20:00,
2013-06-01 00:25:00,63.2,53.5,28.63,SSE,157,3.0,4.2,71,0.00,,,0.00,Rainwise IP-100,2013-06-01 05:25:00,
2013-06-01 00:30:00,63.1,54.0,28.63,South,180,3.5,4.0,72,0.00,,,0.00,Rainwise IP-100,2013-06-01 05:30:00,
2013-06-01 00:35:00,63.1,54.0,28.62,South,180,4.0,4.7,73,0.00,,,0.00,Rainwise IP-100,2013-06-01 05:35:00,
2013-06-01 00:40:00,63.1,54.0,28.62,SSE,157,3.5,5.1,73,0.00,,,0.00,Rainwise IP-100,2013-06-01 05:40:00,
2013-06-01 00:45:00,62.9,54.5,28.61,SSE,157,3.5,4.2,74,0.00,,,0.00,Rainwise IP-100,2013-06-01 05:45:00,
2013-06-01 00:50:00,62.6,54.5,28.61,SSE,157,4.7,5.1,75,0.00,,,0.00,Rainwise IP-100,2013-06-01 05:50:00,
2013-06-01 00:55:00,62.5,54.5,28.61,SSE,157,5.4,6.1,75,0.00,,,0.00,Rainwise IP-100,2013-06-01 05:55:00,
2013-06-01 01:00:00,62.4,54.5,28.61,SSE,157,6.1,6.8,76,0.00,,,0.00,Rainwise IP-100,2013-06-01 06:00:00,
2013-06-01 01:05:00,62.5,54.5,28.62,SSE,157,6.3,7.0,76,0.00,,,0.00,Rainwise IP-100,2013-06-01 06:05:00,
2013-06-01 01:10:00,62.6,54.5,28.62,South,180,6.1,6.5,76,0.00,,,0.00,Rainwise IP-100,2013-06-01 06:10:00,
2013-06-01 01:15:00,62.6,54.5,28.61,SSW,202,2.8,7.2,76,0.00,,,0.00,Rainwise IP-100,2013-06-01 06:15:00,
2013-06-01 01:20:00,62.7,54.0,28.62,SSW,202,4.9,7.7,74,0.00,,,0.00,Rainwise IP-100,2013-06-01 06:20:00,
2013-06-01 01:25:00,62.7,54.0,28.62,SSW,202,5.6,8.2,74,0.00,,,0.00,Rainwise IP-100,2013-06-01 06:25:00,
2013-06-01 01:30:00,62.7,54.0,28.62,SSE,157,3.3,9.1,73,0.00,,,0.00,Rainwise IP-100,2013-06-01 06:30:00,
2013-06-01 01:35:00,62.8,53.5,28.62,SW,225,3.5,7.5,71,0.00,,,0.00,Rainwise IP-100,2013-06-01 06:35:00,
2013-06-01 01:40:00,62.8,53.5,28.63,SW,225,3.7,6.1,70,0.00,,,0.00,Rainwise IP-100,2013-06-01 06:40:00,
2013-06-01 01:45:00,62.7,53.0,28.63,SW,225,2.3,5.1,70,0.00,,,0.00,Rainwise IP-100,2013-06-01 06:45:00,
2013-06-01 01:50:00,62.6,53.0,28.63,SSW,202,2.8,5.6,71,0.00,,,0.00,Rainwise IP-100,2013-06-01 06:50:00,
2013-06-01 01:55:00,62.4,53.0,28.63,SSW,202,4.2,5.1,71,0.00,,,0.00,Rainwise IP-100,2013-06-01 06:55:00,
2013-06-01 02:00:00,62.2,53.0,28.63,SW,225,3.5,6.3,72,0.00,,,0.00,Rainwise IP-100,2013-06-01 07:00:00,
2013-06-01 02:05:00,62.0,53.0,28.63,SSW,202,4.0,5.8,72,0.00,,,0.00,Rainwise IP-100,2013-06-01 07:05:00,
2013-06-01 02:10:00,61.8,53.0,28.63,SW,225,3.3,5.8,72,0.00,,,0.00,Rainwise IP-100,2013-06-01 07:10:00,
2013-06-01 02:15:00,61.6,53.0,28.63,SSW,202,2.1,5.8,73,0.00,,,0.00,Rainwise IP-100,2013-06-01 07:15:00,
2013-06-01 02:20:00,61.2,53.0,28.63,SSE,157,2.3,6.1,74,0.00,,,0.00,Rainwise IP-100,2013-06-01 07:20:00,
2013-06-01 02:25:00,61.0,53.0,28.63,South,180,4.2,6.5,74,0.00,,,0.00,Rainwise IP-100,2013-06-01 07:25:00,
2013-06-01 02:30:00,60.8,53.5,28.63,SSW,202,4.9,7.7,75,0.00,,,0.00,Rainwise IP-100,2013-06-01 07:30:00,
2013-06-01 02:35:00,60.6,53.0,28.63,WSW,247,2.1,5.6,75,0.00,,,0.00,Rainwise IP-100,2013-06-01 07:35:00,
2013-06-01 02:40:00,60.4,53.0,28.63,SW,225,5.4,5.4,76,0.00,,,0.00,Rainwise IP-100,2013-06-01 07:40:00,
2013-06-01 02:45:00,60.1,53.0,28.63,SSW,202,3.7,5.4,76,0.00,,,0.00,Rainwise IP-100,2013-06-01 07:45:00,
2013-06-01 02:50:00,59.9,53.0,28.63,SSW,202,0.0,5.1,77,0.00,,,0.00,Rainwise IP-100,2013-06-01 07:50:00,
2013-06-01 02:55:00,59.7,53.0,28.64,South,180,1.6,5.1,78,0.00,,,0.00,Rainwise IP-100,2013-06-01 07:55:00,
2013-06-01 03:00:00,59.5,53.0,28.63,SSW,202,5.4,5.8,78,0.00,,,0.00,Rainwise IP-100,2013-06-01 08:00:00,
2013-06-01 03:05:00,59.4,53.0,28.63,SSW,202,4.9,6.1,79,0.00,,,0.00,Rainwise IP-100,2013-06-01 08:05:00,
2013-06-01 03:10:00,59.3,53.0,28.63,SSW,202,2.1,5.4,79,0.00,,,0.00,Rainwise IP-100,2013-06-01 08:10:00,
2013-06-01 03:15:00,59.2,53.0,28.64,South,180,3.7,7.5,79,0.00,,,0.00,Rainwise IP-100,2013-06-01 08:15:00,
2013-06-01 03:20:00,59.3,53.0,28.63,SSW,202,3.5,6.1,79,0.00,,,0.00,Rainwise IP-100,2013-06-01 08:20:00,
2013-06-01 03:25:00,59.2,53.0,28.63,SSW,202,4.2,6.1,79,0.00,,,0.00,Rainwise IP-100,2013-06-01 08:25:00,
2013-06-01 03:30:00,59.2,53.0,28.64,SSW,202,4.0,6.5,79,0.00,,,0.00,Rainwise IP-100,2013-06-01 08:30:00,
2013-06-01 03:35:00,59.1,53.0,28.63,SSW,202,3.7,6.8,79,0.00,,,0.00,Rainwise IP-100,2013-06-01 08:35:00,
2013-06-01 03:40:00,59.0,52.0,28.64,SSW,202,1.6,5.4,78,0.00,,,0.00,Rainwise IP-100,2013-06-01 08:40:00,
2013-06-01 03:45:00,59.0,52.0,28.63,SSW,202,4.2,7.2,78,0.00,,,0.00,Rainwise IP-100,2013-06-01 08:45:00,
2013-06-01 03:50:00,58.9,53.0,28.63,SSW,202,6.3,6.5,79,0.00,,,0.00,Rainwise IP-100,2013-06-01 08:50:00,
2013-06-01 03:55:00,58.9,53.0,28.64,SSW,202,7.0,7.0,79,0.00,,,0.00,Rainwise IP-100,2013-06-01 08:55:00,
2013-06-01 04:00:00,58.8,53.0,28.63,SSW,202,3.7,7.0,79,0.00,,,0.00,Rainwise IP-100,2013-06-01 09:00:00,
2013-06-01 04:05:00,58.7,53.0,28.63,SSW,202,3.3,6.8,80,0.00,,,0.00,Rainwise IP-100,2013-06-01 09:05:00,
2013-06-01 04:10:00,58.6,53.5,28.63,SSW,202,4.9,6.3,81,0.00,,,0.00,Rainwise IP-100,2013-06-01 09:10:00,
2013-06-01 04:15:00,58.5,53.5,28.63,SSW,202,3.3,5.1,81,0.00,,,0.00,Rainwise IP-100,2013-06-01 09:15:00,
2013-06-01 04:20:00,58.4,53.0,28.63,SE,135,1.4,6.5,81,0.00,,,0.00,Rainwise IP-100,2013-06-01 09:20:00,
2013-06-01 04:25:00,58.2,53.0,28.63,SSW,202,4.9,6.1,81,0.00,,,0.00,Rainwise IP-100,2013-06-01 09:25:00,
2013-06-01 04:30:00,58.1,53.0,28.63,SSW,202,4.0,6.5,81,0.00,,,0.00,Rainwise IP-100,2013-06-01 09:30:00,
2013-06-01 04:35:00,58.1,53.0,28.63,SW,225,3.0,5.8,82,0.00,,,0.00,Rainwise IP-100,2013-06-01 09:35:00,
2013-06-01 04:40:00,58.0,53.0,28.63,SSW,202,3.3,5.8,82,0.00,,,0.00,Rainwise IP-100,2013-06-01 09:40:00,
2013-06-01 04:45:00,57.8,53.0,28.63,SW,225,3.7,6.5,82,0.00,,,0.00,Rainwise IP-100,2013-06-01 09:45:00,
2013-06-01 04:50:00,57.7,52.0,28.63,SW,225,1.9,4.4,82,0.00,,,0.00,Rainwise IP-100,2013-06-01 09:50:00,
2013-06-01 04:55:00,57.6,52.0,28.63,SW,225,0.0,2.8,82,0.00,,,0.00,Rainwise IP-100,2013-06-01 09:55:00,
2013-06-01 05:00:00,57.4,52.0,28.63,SW,225,0.0,3.3,82,0.00,,,0.00,Rainwise IP-100,2013-06-01 10:00:00,
2013-06-01 05:05:00,57.1,52.0,28.63,South,180,2.1,2.8,83,0.00,,,0.00,Rainwise IP-100,2013-06-01 10:05:00,
2013-06-01 05:10:00,57.0,52.0,28.63,SSE,157,3.3,3.7,84,0.00,,,0.00,Rainwise IP-100,2013-06-01 10:10:00,
2013-06-01 05:15:00,57.0,53.0,28.64,SSW,202,2.3,4.2,85,0.00,,,0.00,Rainwise IP-100,2013-06-01 10:15:00,
2013-06-01 05:20:00,57.1,53.0,28.64,SSE,157,1.4,3.5,85,0.00,,,0.00,Rainwise IP-100,2013-06-01 10:20:00,
2013-06-01 05:25:00,57.1,53.0,28.64,SSE,157,3.0,4.7,85,0.00,,,0.00,Rainwise IP-100,2013-06-01 10:25:00,
2013-06-01 05:30:00,56.9,53.0,28.64,SSE,157,4.2,4.7,86,0.00,,,0.00,Rainwise IP-100,2013-06-01 10:30:00,
2013-06-01 05:35:00,57.0,53.0,28.64,SSE,157,4.0,6.1,86,0.00,,,0.00,Rainwise IP-100,2013-06-01 10:35:00,
2013-06-01 05:40:00,57.2,53.0,28.65,SSW,202,3.3,5.6,86,0.00,,,0.00,Rainwise IP-100,2013-06-01 10:40:00,
2013-06-01 05:45:00,57.2,53.0,28.65,SSW,202,4.4,6.8,85,0.00,,,0.00,Rainwise IP-100,2013-06-01 10:45:00,
2013-06-01 05:50:00,57.2,53.0,28.65,SSE,157,0.0,6.1,85,0.00,,,0.00,Rainwise IP-100,2013-06-01 10:50:00,
2013-06-01 05:55:00,57.3,53.0,28.65,South,180,0.0,4.4,84,0.00,,,0.00,Rainwise IP-100,2013-06-01 10:55:00,
2013-06-01 06:00:00,57.3,53.0,28.66,SW,225,2.6,4.7,84,0.00,,,0.00,Rainwise IP-100,2013-06-01 11:00:00,
2013-06-01 06:05:00,57.5,53.0,28.66,SW,225,0.0,3.3,84,0.00,,,0.00,Rainwise IP-100,2013-06-01 11:05:00,
2013-06-01 06:10:00,57.6,53.0,28.66,SW,225,2.8,4.0,83,0.00,,,0.00,Rainwise IP-100,2013-06-01 11:10:00,
2013-06-01 06:15:00,57.9,53.5,28.66,SSW,202,3.3,4.4,83,0.00,,,0.00,Rainwise IP-100,2013-06-01 11:15:00,
2013-06-01 06:20:00,58.3,53.0,28.66,SSE,157,3.3,4.0,82,0.00,,,0.00,Rainwise IP-100,2013-06-01 11:20:00,
2013-06-01 06:25:00,58.4,53.0,28.66,SSW,202,3.5,5.8,82,0.00,,,0.00,Rainwise IP-100,2013-06-01 11:25:00,
2013-06-01 06:30:00,58.2,53.0,28.66,SSW,202,7.0,7.5,82,0.00,,,0.00,Rainwise IP-100,2013-06-01 11:30:00,
2013-06-01 06:35:00,58.1,53.0,28.66,SSW,202,4.7,7.5,82,0.00,,,0.00,Rainwise IP-100,2013-06-01 11:35:00,
2013-06-01 06:40:00,58.1,53.5,28.66,SSW,202,3.0,4.7,83,0.00,,,0.00,Rainwise IP-100,2013-06-01 11:40:00,
2013-06-01 06:45:00,58.0,53.5,28.66,SSW,202,8.4,8.4,83,0.00,,,0.00,Rainwise IP-100,2013-06-01 11:45:00,
2013-06-01 06:50:00,57.9,53.5,28.66,SSE,157,5.1,8.4,83,0.00,,,0.00,Rainwise IP-100,2013-06-01 11:50:00,
2013-06-01 06:55:00,57.8,53.5,28.66,SSW,202,3.7,6.1,84,0.00,,,0.00,Rainwise IP-100,2013-06-01 11:55:00,
2013-06-01 07:00:00,57.8,53.5,28.66,SSE,157,7.2,8.2,84,0.00,,,0.00,Rainwise IP-100,2013-06-01 12:00:00,
2013-06-01 07:05:00,57.8,53.5,28.66,WSW,247,5.1,10.0,84,0.00,,,0.00,Rainwise IP-100,2013-06-01 12:05:00,
2013-06-01 07:10:00,57.7,53.5,28.67,WSW,247,6.8,8.9,85,0.00,,,0.00,Rainwise IP-100,2013-06-01 12:10:00,
2013-06-01 07:15:00,57.7,53.5,28.66,SSW,202,2.8,7.0,85,0.00,,,0.00,Rainwise IP-100,2013-06-01 12:15:00,
2013-06-01 07:20:00,57.6,53.5,28.67,SSW,202,2.6,7.7,85,0.00,,,0.00,Rainwise IP-100,2013-06-01 12:20:00,
2013-06-01 07:25:00,57.7,53.5,28.67,WSW,247,4.0,6.1,85,0.00,,,0.00,Rainwise IP-100,2013-06-01 12:25:00,
2013-06-01 07:30:00,57.7,53.5,28.66,South,180,1.4,5.4,85,0.00,,,0.00,Rainwise IP-100,2013-06-01 12:30:00,
2013-06-01 07:35:00,57.8,54.0,28.66,WSW,247,1.4,5.6,85,0.00,,,0.00,Rainwise IP-100,2013-06-01 12:35:00,
2013-06-01 07:40:00,57.9,54.0,28.67,West,270,3.3,4.4,85,0.00,,,0.00,Rainwise IP-100,2013-06-01 12:40:00,
2013-06-01 07:45:00,58.2,54.0,28.67,West,270,4.0,6.1,85,0.00,,,0.00,Rainwise IP-100,2013-06-01 12:45:00,
2013-06-01 07:50:00,58.5,54.0,28.67,WNW,292,3.5,6.5,84,0.00,,,0.00,Rainwise IP-100,2013-06-01 12:50:00,
2013-06-01 07:55:00,58.5,54.0,28.67,WNW,292,1.6,5.4,84,0.00,,,0.00,Rainwise IP-100,2013-06-01 12:55:00,
2013-06-01 08:00:00,58.4,53.5,28.67,West,270,1.9,5.8,84,0.00,,,0.00,Rainwise IP-100,2013-06-01 13:00:00,
2013-06-01 08:05:00,58.4,53.5,28.68,WSW,247,2.1,4.7,84,0.00,,,0.00,Rainwise IP-100,2013-06-01 13:05:00,
2013-06-01 08:10:00,58.5,54.0,28.68,WNW,292,2.1,4.7,84,0.00,,,0.00,Rainwise IP-100,2013-06-01 13:10:00,
2013-06-01 08:15:00,58.6,54.0,28.68,WSW,247,2.1,4.0,84,0.00,,,0.00,Rainwise IP-100,2013-06-01 13:15:00,
2013-06-01 08:20:00,58.7,54.0,28.68,WNW,292,3.0,4.2,84,0.00,,,0.00,Rainwise IP-100,2013-06-01 13:20:00,
2013-06-01 08:25:00,59.3,54.5,28.68,West,270,0.0,3.0,84,0.00,,,0.00,Rainwise IP-100,2013-06-01 13:25:00,
2013-06-01 08:30:00,60.4,54.5,28.68,SSE,157,1.9,2.8,82,0.00,,,0.00,Rainwise IP-100,2013-06-01 13:30:00,
2013-06-01 08:35:00,61.6,56.0,28.68,SSE,157,0.0,1.9,81,0.00,,,0.00,Rainwise IP-100,2013-06-01 13:35:00,
2013-06-01 08:40:00,63.7,56.0,28.68,SSE,157,0.0,2.1,77,0.00,,,0.00,Rainwise IP-100,2013-06-01 13:40:00,
2013-06-01 08:45:00,65.0,56.5,28.68,SSE,157,3.5,3.5,74,0.00,,,0.00,Rainwise IP-100,2013-06-01 13:45:00,
2013-06-01 08:50:00,65.8,57.0,28.68,SSE,157,4.0,4.9,73,0.00,,,0.00,Rainwise IP-100,2013-06-01 13:50:00,
2013-06-01 08:55:00,64.9,56.0,28.68,SE,135,1.2,4.0,73,0.00,,,0.00,Rainwise IP-100,2013-06-01 13:55:00,
2013-06-01 09:00:00,65.1,56.0,28.68,SSW,202,2.8,2.8,72,0.00,,,0.00,Rainwise IP-100,2013-06-01 14:00:00,
2013-06-01 09:05:00,66.6,57.0,28.69,SSW,202,0.0,3.0,71,0.00,,,0.00,Rainwise IP-100,2013-06-01 14:05:00,
2013-06-01 09:10:00,67.0,57.0,28.69,SSE,157,3.7,4.2,70,0.00,,,0.00,Rainwise IP-100,2013-06-01 14:10:00,
2013-06-01 09:15:00,67.0,56.5,28.69,SSE,157,1.9,3.7,69,0.00,,,0.00,Rainwise IP-100,2013-06-01 14:15:00,
2013-06-01 09:20:00,66.7,56.5,28.69,SSE,157,0.0,2.1,69,0.00,,,0.00,Rainwise IP-100,2013-06-01 14:20:00,
2013-06-01 09:25:00,66.7,56.5,28.70,SSE,157,2.6,4.0,70,0.00,,,0.00,Rainwise IP-100,2013-06-01 14:25:00,
2013-06-01 09:30:00,66.6,56.5,28.70,SSE,157,4.2,4.2,70,0.00,,,0.00,Rainwise IP-100,2013-06-01 14:30:00,
2013-06-01 09:35:00,66.1,56.0,28.70,SSE,157,3.7,4.9,70,0.00,,,0.00,Rainwise IP-100,2013-06-01 14:35:00,
2013-06-01 09:40:00,65.7,56.0,28.70,SSE,157,3.3,4.4,71,0.00,,,0.00,Rainwise IP-100,2013-06-01 14:40:00,
2013-06-01 09:45:00,65.4,56.0,28.70,WSW,247,1.6,6.1,72,0.00,,,0.00,Rainwise IP-100,2013-06-01 14:45:00,
2013-06-01 09:50:00,65.4,56.0,28.70,SSE,157,4.9,4.9,71,0.00,,,0.00,Rainwise IP-100,2013-06-01 14:50:00,
2013-06-01 09:55:00,66.1,56.0,28.69,SSE,157,4.9,5.4,71,0.00,,,0.00,Rainwise IP-100,2013-06-01 14:55:00,
2013-06-01 10:00:00,66.9,57.0,28.69,SSE,157,4.9,6.3,70,0.00,,,0.00,Rainwise IP-100,2013-06-01 15:00:00,
2013-06-01 10:05:00,67.2,56.5,28.70,SSE,157,5.4,5.8,69,0.00,,,0.00,Rainwise IP-100,2013-06-01 15:05:00,
2013-06-01 10:10:00,67.0,56.5,28.70,SSE,157,6.1,6.1,69,0.00,,,0.00,Rainwise IP-100,2013-06-01 15:10:00,
2013-06-01 10:15:00,67.2,56.5,28.70,SSE,157,5.1,6.1,69,0.00,,,0.00,Rainwise IP-100,2013-06-01 15:15:00,
2013-06-01 10:20:00,68.0,57.0,28.70,SSE,157,4.0,5.8,68,0.00,,,0.00,Rainwise IP-100,2013-06-01 15:20:00,
2013-06-01 10:25:00,67.8,56.5,28.70,South,180,4.2,6.8,67,0.00,,,0.00,Rainwise IP-100,2013-06-01 15:25:00,
2013-06-01 10:30:00,67.9,56.5,28.70,SSE,157,4.4,5.4,66,0.00,,,0.00,Rainwise IP-100,2013-06-01 15:30:00,
2013-06-01 10:35:00,69.1,56.5,28.70,SE,135,4.0,5.4,65,0.00,,,0.00,Rainwise IP-100,2013-06-01 15:35:00,
2013-06-01 10:40:00,68.5,56.5,28.71,SSE,157,4.2,4.9,65,0.00,,,0.00,Rainwise IP-100,2013-06-01 15:40:00,
2013-06-01 10:45:00,68.8,56.5,28.70,SSE,157,5.4,6.1,65,0.00,,,0.00,Rainwise IP-100,2013-06-01 15:45:00,
2013-06-01 10:50:00,69.8,57.0,28.71,SSE,157,5.4,6.3,64,0.00,,,0.00,Rainwise IP-100,2013-06-01 15:50:00,
2013-06-01 10:55:00,68.9,56.0,28.71,SSE,157,2.6,5.6,64,0.00,,,0.00,Rainwise IP-100,2013-06-01 15:55:00,
2013-06-01 11:00:00,68.1,56.0,28.71,SSE,157,3.5,4.2,65,0.00,,,0.00,Rainwise IP-100,2013-06-01 16:00:00,
2013-06-01 11:05:00,67.4,55.0,28.71,SSE,157,4.7,5.4,65,0.00,,,0.00,Rainwise IP-100,2013-06-01 16:05:00,
2013-06-01 11:10:00,67.6,55.0,28.71,SSE,157,3.0,5.6,65,0.00,,,0.00,Rainwise IP-100,2013-06-01 16:10:00,
2013-06-01 11:15:00,68.9,56.0,28.71,SSE,157,3.0,4.4,64,0.00,,,0.00,Rainwise IP-100,2013-06-01 16:15:00,
2013-06-01 11:20:00,70.2,56.5,28.71,SSE,157,3.3,4.0,62,0.00,,,0.00,Rainwise IP-100,2013-06-01 16:20:00,
2013-06-01 11:25:00,71.0,56.5,28.71,SSE,157,5.1,5.4,61,0.00,,,0.00,Rainwise IP-100,2013-06-01 16:25:00,
2013-06-01 11:30:00,70.7,56.0,28.71,SSE,157,4.2,5.8,60,0.00,,,0.00,Rainwise IP-100,2013-06-01 16:30:00,
2013-06-01 11:35:00,70.6,56.0,28.71,South,180,3.3,5.4,60,0.00,,,0.00,Rainwise IP-100,2013-06-01 16:35:00,
2013-06-01 11:40:00,70.9,56.5,28.71,SSE,157,3.3,4.7,60,0.00,,,0.00,Rainwise IP-100,2013-06-01 16:40:00,
2013-06-01 11:45:00,70.9,56.0,28.71,SSW,202,5.8,5.8,59,0.00,,,0.00,Rainwise IP-100,2013-06-01 16:45:00,
2013-06-01 11:50:00,70.4,55.0,28.71,SSE,157,1.6,7.2,59,0.00,,,0.00,Rainwise IP-100,2013-06-01 16:50:00,
2013-06-01 11:55:00,69.8,55.0,28.71,SSW,202,3.7,8.4,60,0.00,,,0.00,Rainwise IP-100,2013-06-01 16:55:00,
2013-06-01 12:00:00,69.8,55.0,28.71,South,180,4.7,7.7,60,0.00,,,0.00,Rainwise IP-100,2013-06-01 17:00:00,
2013-06-01 12:05:00,69.9,56.0,28.71,SSE,157,4.2,7.7,61,0.00,,,0.00,Rainwise IP-100,2013-06-01 17:05:00,
2013-06-01 12:10:00,70.4,56.0,28.71,SSE,157,2.6,4.7,60,0.00,,,0.00,Rainwise IP-100,2013-06-01 17:10:00,
2013-06-01 12:15:00,70.7,55.0,28.71,North,0,6.8,6.8,59,0.00,,,0.00,Rainwise IP-100,2013-06-01 17:15:00,
2013-06-01 12:20:00,70.6,54.5,28.70,NW,315,1.6,7.0,57,0.00,,,0.00,Rainwise IP-100,2013-06-01 17:20:00,
2013-06-01 12:25:00,71.0,54.5,28.70,West,270,4.7,7.9,56,0.00,,,0.00,Rainwise IP-100,2013-06-01 17:25:00,
2013-06-01 12:30:00,71.7,54.5,28.71,NW,315,1.4,5.8,55,0.00,,,0.00,Rainwise IP-100,2013-06-01 17:30:00,
2013-06-01 12:35:00,72.6,55.0,28.70,NNW,337,3.3,6.3,54,0.00,,,0.00,Rainwise IP-100,2013-06-01 17:35:00,
2013-06-01 12:40:00,73.7,55.0,28.71,SW,225,3.0,4.2,52,0.00,,,0.00,Rainwise IP-100,2013-06-01 17:40:00,
2013-06-01 12:45:00,74.0,55.0,28.71,NE,45,0.0,4.0,52,0.00,,,0.00,Rainwise IP-100,2013-06-01 17:45:00,
2013-06-01 12:50:00,74.8,55.0,28.70,NNE,22,4.7,4.7,51,0.00,,,0.00,Rainwise IP-100,2013-06-01 17:50:00,
2013-06-01 12:55:00,76.1,54.5,28.70,SE,135,1.6,5.4,48,0.00,,,0.00,Rainwise IP-100,2013-06-01 17:55:00,
2013-06-01 13:00:00,76.2,56.0,28.70,WNW,292,2.3,3.0,49,0.00,,,0.00,Rainwise IP-100,2013-06-01 18:00:00,
2013-06-01 13:05:00,75.8,55.0,28.70,North,0,9.3,9.3,49,0.00,,,0.00,Rainwise IP-100,2013-06-01 18:05:00,
2013-06-01 13:10:00,74.7,54.5,28.71,North,0,6.5,11.2,49,0.00,,,0.00,Rainwise IP-100,2013-06-01 18:10:00,
2013-06-01 13:15:00,73.4,54.0,28.70,NNE,22,5.4,12.1,50,0.00,,,0.00,Rainwise IP-100,2013-06-01 18:15:00,
2013-06-01 13:20:00,72.1,53.5,28.71,WNW,292,5.4,11.4,52,0.00,,,0.00,Rainwise IP-100,2013-06-01 18:20:00,
2013-06-01 13:25:00,70.9,54.0,28.71,NNW,337,7.7,11.7,55,0.00,,,0.00,Rainwise IP-100,2013-06-01 18:25:00,
2013-06-01 13:30:00,69.9,54.5,28.72,NW,315,9.1,13.3,58,0.00,,,0.00,Rainwise IP-100,2013-06-01 18:30:00,
2013-06-01 13:39:00,69.5,55.0,28.72,NW,315,8.4,10.7,60,0.00,,,0.00,Rainwise IP-100,2013-06-01 18:39:00,
2013-06-01 13:51:00,65.3,56.5,28.73,WNW,292,13.3,0.0,73,0.00,,,0.00,Rainwise IP-100,2013-06-01 18:51:00,
2013-06-01 13:57:00,64.7,56.0,28.74,NNW,337,10.0,13.3,73,0.00,,,0.00,Rainwise IP-100,2013-06-01 18:57:00,
2013-06-01 14:02:00,64.5,56.0,28.74,WNW,292,12.8,16.6,74,0.00,,,0.00,Rainwise IP-100,2013-06-01 19:02:00,
2013-06-01 14:07:00,64.1,56.0,28.74,WNW,292,9.1,12.8,75,0.00,,,0.00,Rainwise IP-100,2013-06-01 19:07:00,
2013-06-01 14:12:00,64.0,56.0,28.74,NNW,337,7.2,11.0,75,0.00,,,0.00,Rainwise IP-100,2013-06-01 19:12:00,
2013-06-01 14:17:00,63.8,56.5,28.75,NNW,337,7.5,13.3,77,0.00,,,0.00,Rainwise IP-100,2013-06-01 19:17:00,
2013-06-01 14:22:00,63.8,57.0,28.75,WNW,292,7.0,9.8,79,0.00,,,0.00,Rainwise IP-100,2013-06-01 19:22:00,
2013-06-01 14:27:00,64.1,57.5,28.76,NNW,337,7.0,11.7,80,0.00,,,0.00,Rainwise IP-100,2013-06-01 19:27:00,
2013-06-01 14:34:00,64.7,57.5,28.75,North,0,8.2,8.2,79,0.00,,,0.00,Rainwise IP-100,2013-06-01 19:34:00,
2013-06-01 14:39:00,64.9,57.5,28.76,NNW,337,7.2,8.2,78,0.00,,,0.00,Rainwise IP-100,2013-06-01 19:39:00,
2013-06-01 14:44:00,64.6,57.5,28.76,NNW,337,10.7,10.7,78,0.00,,,0.00,Rainwise IP-100,2013-06-01 19:44:00,
2013-06-01 14:49:00,63.1,56.5,28.76,NNE,22,5.1,10.7,80,0.00,,,0.00,Rainwise IP-100,2013-06-01 19:49:00,
2013-06-01 15:09:00,63.2,58.0,28.77,WNW,292,7.2,0.0,84,0.00,,,0.00,Rainwise IP-100,2013-06-01 20:09:00,
2013-06-01 15:14:00,63.6,59.0,28.77,NNW,337,7.0,10.3,84,0.00,,,0.00,Rainwise IP-100,2013-06-01 20:14:00,
2013-06-01 15:19:00,63.8,59.0,28.76,NNW,337,11.9,11.9,83,0.00,,,0.00,Rainwise IP-100,2013-06-01 20:19:00,
2013-06-01 15:24:00,63.9,58.0,28.77,NNW,337,7.0,12.8,82,0.00,,,0.00,Rainwise IP-100,2013-06-01 20:24:00,
2013-06-01 15:29:00,63.8,58.0,28.77,WNW,292,5.6,12.4,81,0.00,,,0.00,Rainwise IP-100,2013-06-01 20:29:00,
2013-06-01 15:34:00,63.8,57.5,28.77,NW,315,6.8,14.7,80,0.00,,,0.00,Rainwise IP-100,2013-06-01 20:34:00,
2013-06-01 15:39:00,64.0,57.0,28.78,WNW,292,8.6,20.3,79,0.00,,,0.00,Rainwise IP-100,2013-06-01 20:39:00,
2013-06-01 15:44:00,64.0,57.0,28.78,NW,315,12.6,19.8,78,0.00,,,0.00,Rainwise IP-100,2013-06-01 20:44:00,
2013-06-01 15:49:00,63.8,57.0,28.78,WNW,292,7.9,20.1,78,0.00,,,0.00,Rainwise IP-100,2013-06-01 20:49:00,
2013-06-01 15:54:00,63.6,56.5,28.78,NW,315,12.1,17.3,78,0.00,,,0.00,Rainwise IP-100,2013-06-01 20:54:00,
2013-06-01 15:59:00,63.1,56.0,28.79,NNW,337,12.4,20.8,78,0.06,,,0.01,Rainwise IP-100,2013-06-01 20:59:00,
2013-06-01 16:04:00,62.5,55.0,28.79,North,0,11.9,22.9,78,0.06,,,0.01,Rainwise IP-100,2013-06-01 21:04:00,
2013-06-01 16:09:00,62.1,55.0,28.79,NW,315,14.5,18.0,78,0.00,,,0.01,Rainwise IP-100,2013-06-01 21:09:00,
2013-06-01 16:14:00,61.9,55.0,28.80,NW,315,9.8,19.4,78,0.00,,,0.01,Rainwise IP-100,2013-06-01 21:14:00,
2013-06-01 16:19:00,61.8,55.0,28.80,WNW,292,10.7,21.7,78,0.00,,,0.01,Rainwise IP-100,2013-06-01 21:19:00,
2013-06-01 16:24:00,61.7,54.0,28.80,NW,315,10.5,23.3,77,0.00,,,0.01,Rainwise IP-100,2013-06-01 21:24:00,
2013-06-01 16:29:00,61.5,54.0,28.80,North,0,5.6,19.4,77,0.00,,,0.01,Rainwise IP-100,2013-06-01 21:29:00,
2013-06-01 16:34:00,61.5,54.0,28.80,NNW,337,9.3,17.0,76,0.00,,,0.01,Rainwise IP-100,2013-06-01 21:34:00,
2013-06-01 16:39:00,61.6,54.0,28.80,NNW,337,9.3,20.3,76,0.00,,,0.01,Rainwise IP-100,2013-06-01 21:39:00,
2013-06-01 16:44:00,61.4,53.5,28.80,WNW,292,14.5,20.1,75,0.00,,,0.01,Rainwise IP-100,2013-06-01 21:44:00,
2013-06-01 16:49:00,61.2,53.5,28.81,WNW,292,9.6,18.9,75,0.00,,,0.01,Rainwise IP-100,2013-06-01 21:49:00,
2013-06-01 16:54:00,61.2,53.5,28.81,NW,315,9.6,20.3,75,0.00,,,0.01,Rainwise IP-100,2013-06-01 21:54:00,
2013-06-01 16:59:00,61.1,53.0,28.81,NNW,337,10.5,18.9,74,0.00,,,0.01,Rainwise IP-100,2013-06-01 21:59:00,
2013-06-01 17:04:00,61.1,53.0,28.82,NNW,337,10.5,19.8,74,0.00,,,0.01,Rainwise IP-100,2013-06-01 22:04:00,
2013-06-01 17:09:00,60.9,53.0,28.82,NNW,337,10.5,17.3,74,0.00,,,0.01,Rainwise IP-100,2013-06-01 22:09:00,
2013-06-01 17:14:00,60.6,52.0,28.82,NNW,337,14.7,19.4,74,0.00,,,0.01,Rainwise IP-100,2013-06-01 22:14:00,
2013-06-01 17:19:00,60.2,51.0,28.83,NW,315,10.3,21.2,73,0.00,,,0.01,Rainwise IP-100,2013-06-01 22:19:00,
2013-06-01 17:24:00,60.0,51.0,28.83,WNW,292,13.8,16.6,73,0.00,,,0.01,Rainwise IP-100,2013-06-01 22:24:00,
2013-06-01 17:29:00,59.9,51.0,28.83,NW,315,9.1,19.8,74,0.00,,,0.01,Rainwise IP-100,2013-06-01 22:29:00,
2013-06-01 17:34:00,59.6,50.5,28.82,WNW,292,11.9,18.4,73,0.00,,,0.01,Rainwise IP-100,2013-06-01 22:34:00,
2013-06-01 17:39:00,59.4,51.0,28.83,WNW,292,12.6,18.4,74,0.00,,,0.01,Rainwise IP-100,2013-06-01 22:39:00,
2013-06-01 17:44:00,59.2,50.5,28.83,WNW,292,11.0,22.9,74,0.00,,,0.01,Rainwise IP-100,2013-06-01 22:44:00,
2013-06-01 17:49:00,59.0,50.5,28.83,NW,315,14.7,21.9,74,0.00,,,0.01,Rainwise IP-100,2013-06-01 22:49:00,
2013-06-01 17:54:00,58.8,50.5,28.84,NNW,337,11.0,20.8,74,0.00,,,0.01,Rainwise IP-100,2013-06-01 22:54:00,
2013-06-01 17:59:00,58.4,50.0,28.84,WNW,292,16.1,21.2,74,0.00,,,0.01,Rainwise IP-100,2013-06-01 22:59:00,
2013-06-01 18:04:00,58.3,50.0,28.85,West,270,9.6,18.0,74,0.00,,,0.01,Rainwise IP-100,2013-06-01 23:04:00,
2013-06-01 18:09:00,58.2,50.0,28.85,NW,315,13.5,15.9,74,0.00,,,0.01,Rainwise IP-100,2013-06-01 23:09:00,
2013-06-01 18:14:00,57.9,50.0,28.85,NW,315,9.8,23.1,74,0.00,,,0.01,Rainwise IP-100,2013-06-01 23:14:00,
2013-06-01 18:19:00,57.5,50.0,28.86,NW,315,13.3,21.7,74,0.00,,,0.01,Rainwise IP-100,2013-06-01 23:19:00,
2013-06-01 18:24:00,57.2,49.0,28.86,WNW,292,9.3,20.3,74,0.00,,,0.01,Rainwise IP-100,2013-06-01 23:24:00,
2013-06-01 18:29:00,56.9,49.0,28.86,NNW,337,9.3,21.0,74,0.00,,,0.01,Rainwise IP-100,2013-06-01 23:29:00,
2013-06-01 18:34:00,56.7,49.0,28.87,WNW,292,9.3,17.0,75,0.00,,,0.01,Rainwise IP-100,2013-06-01 23:34:00,
2013-06-01 18:39:00,56.6,49.0,28.86,WNW,292,14.0,20.8,75,0.00,,,0.01,Rainwise IP-100,2013-06-01 23:39:00,
2013-06-01 18:44:00,56.5,49.0,28.87,NNW,337,13.1,16.8,75,0.00,,,0.01,Rainwise IP-100,2013-06-01 23:44:00,
2013-06-01 18:49:00,56.4,49.0,28.87,NNW,337,14.7,21.2,75,0.00,,,0.01,Rainwise IP-100,2013-06-01 23:49:00,
2013-06-01 18:54:00,56.2,47.5,28.88,NW,315,10.3,20.5,74,0.00,,,0.01,Rainwise IP-100,2013-06-01 23:54:00,
2013-06-01 18:59:00,56.1,47.5,28.88,NNW,337,11.7,21.2,74,0.00,,,0.01,Rainwise IP-100,2013-06-01 23:59:00,
2013-06-01 19:04:00,56.0,47.5,28.88,NNW,337,6.3,21.9,74,0.00,,,0.01,Rainwise IP-100,2013-06-02 00:04:00,
2013-06-01 19:09:00,56.0,47.5,28.89,NW,315,18.7,18.7,74,0.00,,,0.01,Rainwise IP-100,2013-06-02 00:09:00,
2013-06-01 19:14:00,55.7,47.5,28.89,NNE,22,9.8,18.9,74,0.00,,,0.01,Rainwise IP-100,2013-06-02 00:14:00,
2013-06-01 19:19:00,55.4,47.0,28.89,NNW,337,3.5,20.1,73,0.00,,,0.01,Rainwise IP-100,2013-06-02 00:19:00,
2013-06-01 19:24:00,55.2,47.0,28.90,NNE,22,3.5,19.4,73,0.00,,,0.01,Rainwise IP-100,2013-06-02 00:24:00,
2013-06-01 19:29:00,55.0,47.0,28.90,North,0,8.2,14.5,73,0.00,,,0.01,Rainwise IP-100,2013-06-02 00:29:00,
2013-06-01 19:34:00,55.1,47.0,28.91,NNE,22,14.2,15.9,73,0.00,,,0.01,Rainwise IP-100,2013-06-02 00:34:00,
2013-06-01 19:39:00,55.0,47.0,28.91,NNW,337,10.0,18.4,73,0.00,,,0.01,Rainwise IP-100,2013-06-02 00:39:00,
2013-06-01 19:44:00,54.5,46.0,28.91,West,270,8.2,19.6,73,0.00,,,0.01,Rainwise IP-100,2013-06-02 00:44:00,
2013-06-01 19:49:00,54.2,46.0,28.92,North,0,15.9,26.6,73,0.00,,,0.01,Rainwise IP-100,2013-06-02 00:49:00,
2013-06-01 19:54:00,53.9,46.0,28.92,North,0,5.6,22.6,73,0.00,,,0.01,Rainwise IP-100,2013-06-02 00:54:00,
2013-06-01 19:59:00,53.5,45.0,28.92,North,0,19.1,26.6,73,0.00,,,0.01,Rainwise IP-100,2013-06-02 00:59:00,
2013-06-01 20:04:00,53.4,45.0,28.93,North,0,13.3,21.5,73,0.00,,,0.01,Rainwise IP-100,2013-06-02 01:04:00,
2013-06-01 20:09:00,53.3,45.0,28.93,NNE,22,14.5,20.8,73,0.00,,,0.01,Rainwise IP-100,2013-06-02 01:09:00,
2013-06-01 20:14:00,53.2,44.0,28.93,NNW,337,15.9,21.5,73,0.00,,,0.01,Rainwise IP-100,2013-06-02 01:14:00,
2013-06-01 20:19:00,53.1,44.0,28.94,NW,315,10.3,17.0,73,0.00,,,0.01,Rainwise IP-100,2013-06-02 01:19:00,
2013-06-01 20:24:00,53.1,45.0,28.94,NNW,337,1.4,15.9,74,0.00,,,0.01,Rainwise IP-100,2013-06-02 01:24:00,
2013-06-01 20:29:00,53.2,45.0,28.94,North,0,11.9,17.7,74,0.00,,,0.01,Rainwise IP-100,2013-06-02 01:29:00,
2013-06-01 20:34:00,53.1,45.0,28.94,NNW,337,14.7,17.3,74,0.00,,,0.01,Rainwise IP-100,2013-06-02 01:34:00,
2013-06-01 20:39:00,53.0,45.0,28.94,NNE,22,10.0,22.9,74,0.00,,,0.01,Rainwise IP-100,2013-06-02 01:39:00,
2013-06-01 20:44:00,53.0,45.0,28.94,NNW,337,9.3,21.0,74,0.00,,,0.01,Rainwise IP-100,2013-06-02 01:44:00,
2013-06-01 20:49:00,52.8,44.0,28.94,ENE,67,16.1,24.5,73,0.00,,,0.01,Rainwise IP-100,2013-06-02 01:49:00,
2013-06-01 20:54:00,52.7,44.0,28.94,NNE,22,17.0,29.1,73,0.00,,,0.01,Rainwise IP-100,2013-06-02 01:54:00,
2013-06-01 20:59:00,52.7,44.0,28.94,NNW,337,6.5,22.9,73,0.00,,,0.01,Rainwise IP-100,2013-06-02 01:59:00,
2013-06-01 21:04:00,52.7,44.0,28.94,North,0,19.4,22.2,73,0.00,,,0.01,Rainwise IP-100,2013-06-02 02:04:00,
2013-06-01 21:09:00,52.6,44.0,28.95,NNW,337,13.5,22.9,73,0.00,,,0.01,Rainwise IP-100,2013-06-02 02:09:00,
2013-06-01 21:14:00,52.5,44.0,28.95,North,0,18.0,20.1,73,0.00,,,0.01,Rainwise IP-100,2013-06-02 02:14:00,
2013-06-01 21:19:00,52.5,45.0,28.96,NNE,22,14.2,20.8,74,0.00,,,0.01,Rainwise IP-100,2013-06-02 02:19:00,
2013-06-01 21:24:00,52.4,44.0,28.96,NNW,337,9.1,16.3,74,0.00,,,0.01,Rainwise IP-100,2013-06-02 02:24:00,
2013-06-01 21:29:00,52.4,44.0,28.96,NNW,337,8.6,17.7,74,0.00,,,0.01,Rainwise IP-100,2013-06-02 02:29:00,
2013-06-01 21:34:00,52.4,44.0,28.97,NE,45,6.5,19.6,74,0.00,,,0.01,Rainwise IP-100,2013-06-02 02:34:00,
2013-06-01 21:39:00,52.3,44.0,28.97,North,0,12.4,18.0,74,0.00,,,0.01,Rainwise IP-100,2013-06-02 02:39:00,
2013-06-01 21:44:00,52.2,44.0,28.97,NNW,337,11.2,18.0,74,0.00,,,0.01,Rainwise IP-100,2013-06-02 02:44:00,
2013-06-01 21:49:00,52.2,44.0,28.97,NNW,337,6.1,17.5,74,0.00,,,0.01,Rainwise IP-100,2013-06-02 02:49:00,
2013-06-01 21:54:00,52.2,44.0,28.97,NNE,22,5.8,15.4,74,0.00,,,0.01,Rainwise IP-100,2013-06-02 02:54:00,
2013-06-01 21:59:00,52.2,44.0,28.97,NNW,337,9.8,17.3,75,0.00,,,0.01,Rainwise IP-100,2013-06-02 02:59:00,
2013-06-01 22:04:00,52.2,44.0,28.98,NNW,337,10.7,18.0,75,0.00,,,0.01,Rainwise IP-100,2013-06-02 03:04:00,
2013-06-01 22:09:00,52.1,44.0,28.98,North,0,11.9,17.7,75,0.00,,,0.01,Rainwise IP-100,2013-06-02 03:09:00,
2013-06-01 22:14:00,52.1,44.0,28.98,North,0,9.1,15.2,75,0.00,,,0.01,Rainwise IP-100,2013-06-02 03:14:00,
2013-06-01 22:19:00,52.1,44.0,28.98,NNW,337,14.0,17.0,75,0.00,,,0.01,Rainwise IP-100,2013-06-02 03:19:00,
2013-06-01 22:24:00,52.1,45.0,28.98,North,0,10.5,16.6,76,0.00,,,0.01,Rainwise IP-100,2013-06-02 03:24:00,
2013-06-01 22:29:00,52.2,45.0,28.98,North,0,14.5,17.3,76,0.00,,,0.01,Rainwise IP-100,2013-06-02 03:29:00,
2013-06-01 22:34:00,52.2,45.0,28.98,NNE,22,9.6,14.9,76,0.00,,,0.01,Rainwise IP-100,2013-06-02 03:34:00,
2013-06-01 22:39:00,52.2,45.0,28.98,North,0,16.8,17.3,76,0.00,,,0.01,Rainwise IP-100,2013-06-02 03:39:00,
2013-06-01 22:44:00,52.2,45.0,28.98,North,0,14.2,16.8,76,0.00,,,0.01,Rainwise IP-100,2013-06-02 03:44:00,
2013-06-01 22:49:00,52.1,45.0,28.99,North,0,6.5,17.3,76,0.00,,,0.01,Rainwise IP-100,2013-06-02 03:49:00,
2013-06-01 22:54:00,52.2,45.0,28.99,NNW,337,8.9,17.3,77,0.00,,,0.01,Rainwise IP-100,2013-06-02 03:54:00,
2013-06-01 22:59:00,52.2,45.0,28.99,NNE,22,14.2,16.3,77,0.00,,,0.01,Rainwise IP-100,2013-06-02 03:59:00,
2013-06-01 23:01:00,52.1,45.0,28.98,North,0,11.2,16.3,77,0.00,,,0.01,Rainwise IP-100,2013-06-02 04:01:00,
2013-06-01 23:06:00,51.9,45.0,28.98,NNW,337,11.9,24.0,77,0.00,,,0.01,Rainwise IP-100,2013-06-02 04:06:00,
2013-06-01 23:11:00,51.7,45.0,28.98,North,0,11.0,21.7,76,0.00,,,0.01,Rainwise IP-100,2013-06-02 04:11:00,
2013-06-01 23:16:00,51.6,45.0,28.99,North,0,8.4,17.7,77,0.00,,,0.01,Rainwise IP-100,2013-06-02 04:16:00,
2013-06-01 23:21:00,51.6,45.0,28.99,NNW,337,13.1,18.7,77,0.00,,,0.01,Rainwise IP-100,2013-06-02 04:21:00,
2013-06-01 23:26:00,51.7,45.0,28.99,NNW,337,3.5,18.2,76,0.00,,,0.01,Rainwise IP-100,2013-06-02 04:26:00,
2013-06-01 23:31:00,51.7,44.0,28.99,NNW,337,5.8,18.4,75,0.00,,,0.01,Rainwise IP-100,2013-06-02 04:31:00,
2013-06-01 23:36:00,51.8,44.0,29.00,NNW,337,8.2,14.0,75,0.00,,,0.01,Rainwise IP-100,2013-06-02 04:36:00,
2013-06-01 23:41:00,51.8,44.0,29.00,North,0,10.3,14.2,75,0.00,,,0.01,Rainwise IP-100,2013-06-02 04:41:00,
2013-06-01 23:46:00,51.8,44.0,29.01,North,0,7.9,14.5,75,0.00,,,0.01,Rainwise IP-100,2013-06-02 04:46:00,
2013-06-01 23:51:00,51.9,44.0,29.01,WNW,292,8.4,15.6,74,0.00,,,0.01,Rainwise IP-100,2013-06-02 04:51:00,
2013-06-01 23:56:00,51.9,44.0,29.00,North,0,8.6,16.3,74,0.00,,,0.01,Rainwise IP-100,2013-06-02 04:56:00,